Back to catalog

STARLINK-35814

AliveCommunicationsVLEO
NORAD 66576·PAYLOAD·🇺🇸 United States

Launched Nov 21, 2025 from Cape Canaveral Space Force Station

Loading…

Next Passes (next 24 hours)

TLE

FreshSource: CelesTrak SupGP

Epoch: Sep 14, 2026, 22:31 UTC

1 66576C 25268V   26257.93868056 -.00017229  00000+0 -62391-3 0  2573
2 66576  43.0035 358.3867 0001634 270.5124  21.0639 15.27592296    12

Track STARLINK-35814 in real time with AllMySat

Download on the App Store